Probability
0 0 0 0 0 0 0 0 0 0 0 0 0 0 0 0 0 0 0 0 0 0 0 0 0 0 0 0 0 0 0 0 0 0 0 0 0 0 0 0 0 0 0 0
0 0 0 0 0 0 0 0 0 0 0 0 0 0 0 0 0 0 0 0 0 0 0 0 0 0 0 0 0 0 0 0 0 0 0 0 0 0 0 0 0 0 0 0
0 0 0 0 0 0 0 0 0 0 0 0 0 0 0 0 0 0 0 0 0 0 0 0 0 0 0 0 0 0 0 0 0 0 0 0 0 0 0 0 0 0 0 0
0 0 0 0 0 0 0 0 0 0 0 0 0 0 0 0 0 0 0 0 0 0 0 0 0 0 0 0 0 0 0 0 0 0 0 0 0 0 0 0 0 0 0 0
0 0 0 0 0 0 0 0 0 0 0 0 0 0 0 0 0 0 0 0 0 0 0 0 0 0 0 0 0 0 0 0 0 0 0 0 0 0 0 0 0 0 0 0
0 0 0 0 0 0 0 0 0 0 0 0 0 0 0 0 0 0 0 0 0 0 0 0 0 0 0 0 0 0 0 0 0 0 0 0 0 0 0 0 0 0 0 0
0 0 0 0 0 0 0 0 0 0 0 0 0 0 0 0 0 0 0 0 0 0 0 0 0 0 0 0 0 0 0 0 0 0 0 0 0 0 0 0 0 0 0 0
0 0 0 0 0 0 0 0 0 0 0 0 0 0 0 0 0 0 0 0 0 0 0 0 0 0 0 0 0 0 0 0 0 0 0 0 0 0 0 0 0 0 0 0
0 0 0 0 0 0 0 0 0 0 0 0 0 0 0 0 0 0 0 0 0 0 0 0 0 0 0 0 0 0 0 0 0 0 0 0 0 0 0 0 0 0 0 0
0 0 0 0 0 0 0 0 0 0 0 0 0 0 0 0 0 0 0 0 0 0 0 0 0 0 0 0 0 0 0 0 0 0 0 0 0 0 0 0 0 0 0 0
0 0 0 0 0 0 0 0 0 0 0 0 0 0 0 0 0 0 0 0 0 0 0 0 0 0 0 0 0 0 0 0 0 0 0 0 0 0 0 0 0 0 0 0
0 0 0 0 0 0 0 0 0 0 0 0 0 0 0 0 0 0 0 0 0 0 0 0 0 0 0 0 0 0 0 0 0 0 0 0 0 0 0 0 0 0 0 0
0 0 0 0 0 0 0 0 0 0 0 0 0 0 0 0 0 0 0 0 0 0 0 0 0 0 0 0 0 0 0 0 0 0 0 0 0 0 0 0 0 0 0 0
0 0 0 0 0 0 0 0 0 0 0 0 0 0 0 0 0 0 0 0 0 0 0 0 0 0 0 0 0 0 0 0 0 0 0 0 0 0 0 0 0 0 0 0
0 0 0 0 0 0 0 0 0 0 0 0 0 0 0 0 0 0 0 0 0 0 0 0 0 0 0 0 0 0 0 0 0 0 0 0 0 0 0 0 0 0 0 0
0 0 0 0 0 0 0 0 0 0 0 0 0 0 0 0 0 0 0 0 0 0 0 0 0 0 0 0 0 0 0 0 0 0 0 0 0 0 0 0 0 0 0 0
0 0 0 0 0 0 0 0 0 0 0 0 0 0 0 0 0 0 0 0 0 0 0 0 0 0 0 0 0 0 0 0 0 0 0 0 0 0 0 0 0 0 0 0
0 0 0 0 0 0 0 0 0 0 0 0 0 0 0 0 0 0 0 0 0 0 0 0 0 0 0 0 0 0 0 0 0 0 0 0 0 0 0 0 0 0 0 0
0 0 0 0 0 0 0 0 0 0 0 0 0 0 0 0 0 0 0 0 0 0 0 0 0 0 0 0 0 0 0 0 0 0 0 0 0 0 0 0 0 0 0 0
0 0 0 0 0 0 0 0 0 0 0 0 0 0 0 0 0 0 0 0 0 0 0 0 0 0 0 0 0 0 0 0 0 0 0 0 0 0 0 0 0 0 0 0
0 0 0 0 0 0 0 0 0 0 0 0 0 0 0 0 0 0 0 0 0 0 0 0 0 0 0 0 0 0 0 0 0 0 0 0 0 0 0 0 0 0 0 0
0 0 0 0 0 0 0 0 0 0 0 0 0 0 0 0 0 0 0 0 0 0 0 0 0 0 0 0 0 0 0 0 0 0 0 0 0 0 0 0 0 0 0 0
0 0 0 0 0 0 0 0 0 0 0 0 0 0 0 0 0 0 0 0 0 0 0 0 0 0 0 0 0 0 0 0 0 0 0 0 0 0 0 0 0 0 0 0
0 0 0 0 0 0 0 0 0 0 0 0 0 0 0 0 0 0 0 0 0 0 0 0 0 0 0 0 0 0 0 0 0 0 0 0 0 0 0 0 0 0 0 0
0 0 0 0 0 0 0 0 0 0 0 0 0 0 0 0 0 0 0 0 0 0 0 0 0 0 0 0 0 0 0 0 0 0 0 0 0 0 0 0 0 0 0 0
0 0 0 0 0 0 0 0 0 0 0 0 0 0 0 0 0 0 0 0 0 0 0 0 0 0 0 0 0 0 0 0 0 0 0 0 0 0 0 0 0 0 0 0
0 0 0 0 0 0 0 0 0 0 0 0 0 0 0 0 0 0 0 0 0 0 0 0 0 0 0 0 0 0 0 0 0 0 0 0 0 0 0 0 0 0 0 0
Height
5805 5802 5799 5798 5795 5790 5787 5781 5773 5767 5761 5755 5746 5738 5727 5717 5712 5715 5718 5720 5724 5727 5730 5734 5735 5739 5741 5743 5744 5744 5744 5745 5747 5746 5745 5746 5747 5746 5746 5744 5744 5745 5744 5745
5797 5794 5792 5791 5789 5785 5780 5775 5769 5763 5757 5750 5743 5736 5727 5718 5711 5711 5712 5712 5714 5719 5722 5726 5727 5729 5731 5733 5734 5735 5735 5735 5736 5737 5737 5737 5738 5738 5738 5737 5737 5738 5737 5736
5789 5785 5783 5784 5782 5779 5776 5771 5766 5760 5753 5746 5740 5734 5727 5721 5715 5711 5707 5705 5706 5711 5715 5717 5720 5723 5722 5724 5727 5728 5727 5727 5728 5729 5729 5729 5729 5731 5731 5730 5729 5729 5728 5728
5779 5777 5776 5778 5774 5772 5769 5766 5760 5755 5748 5741 5736 5731 5726 5722 5716 5710 5707 5705 5705 5708 5710 5711 5713 5715 5717 5718 5718 5719 5718 5718 5718 5719 5721 5721 5722 5723 5724 5722 5722 5722 5721 5720
5769 5767 5767 5771 5767 5765 5761 5759 5753 5749 5744 5739 5732 5727 5724 5719 5715 5710 5707 5705 5705 5706 5707 5708 5708 5711 5712 5712 5713 5712 5711 5710 5711 5712 5713 5714 5715 5715 5716 5716 5715 5714 5713 5713
5758 5754 5754 5761 5759 5757 5755 5753 5749 5744 5741 5736 5730 5725 5720 5715 5711 5708 5706 5705 5705 5704 5704 5705 5708 5709 5709 5709 5707 5704 5703 5703 5704 5704 5705 5706 5708 5708 5709 5709 5708 5707 5706 5706
5750 5746 5744 5748 5747 5747 5748 5747 5744 5740 5737 5733 5728 5724 5718 5713 5709 5706 5705 5704 5703 5703 5703 5704 5705 5704 5704 5702 5699 5696 5695 5696 5697 5698 5700 5701 5702 5703 5703 5702 5701 5700 5699 5698
5746 5741 5740 5739 5736 5737 5737 5736 5735 5734 5732 5728 5724 5720 5716 5713 5709 5705 5702 5701 5701 5701 5702 5702 5701 5699 5698 5695 5692 5689 5689 5690 5691 5693 5695 5697 5697 5698 5698 5696 5696 5694 5693 5692
5743 5740 5734 5730 5728 5728 5726 5726 5727 5727 5726 5724 5721 5718 5715 5712 5708 5705 5702 5701 5701 5701 5700 5699 5697 5696 5694 5692 5689 5686 5685 5686 5688 5690 5692 5692 5693 5693 5694 5693 5691 5689 5688 5686
5738 5735 5728 5725 5722 5719 5718 5719 5719 5719 5718 5719 5719 5716 5713 5710 5707 5704 5702 5701 5701 5700 5700 5699 5697 5695 5693 5691 5689 5686 5685 5686 5687 5688 5689 5690 5690 5690 5690 5689 5687 5685 5684 5683
5732 5728 5724 5722 5716 5713 5710 5709 5710 5711 5711 5711 5713 5712 5710 5708 5705 5704 5702 5700 5699 5698 5696 5695 5694 5693 5692 5690 5688 5686 5685 5686 5686 5686 5686 5686 5685 5685 5685 5684 5683 5680 5678 5677
5728 5723 5718 5716 5711 5707 5704 5702 5701 5702 5703 5702 5704 5705 5704 5703 5701 5700 5699 5697 5695 5694 5692 5691 5691 5690 5689 5687 5686 5685 5684 5684 5683 5682 5682 5681 5680 5680 5680 5679 5677 5675 5673 5672
5722 5716 5712 5708 5704 5701 5698 5696 5694 5693 5694 5694 5695 5696 5696 5696 5695 5694 5693 5691 5690 5690 5689 5688 5686 5686 5685 5683 5682 5681 5681 5680 5679 5679 5678 5677 5676 5676 5675 5673 5671 5669 5667 5665
5713 5708 5705 5700 5697 5695 5692 5690 5689 5688 5687 5687 5686 5686 5687 5688 5687 5686 5686 5686 5685 5685 5684 5683 5682 5681 5681 5679 5678 5677 5677 5676 5675 5674 5674 5673 5672 5671 5669 5668 5666 5663 5660 5658
5703 5699 5696 5693 5689 5686 5684 5684 5684 5683 5681 5681 5679 5678 5677 5677 5678 5678 5679 5679 5678 5678 5678 5677 5676 5675 5675 5674 5674 5673 5672 5671 5671 5670 5669 5668 5667 5665 5664 5663 5661 5659 5656 5653
5694 5691 5688 5684 5681 5678 5675 5674 5675 5676 5675 5674 5673 5671 5670 5668 5668 5669 5669 5670 5670 5670 5670 5670 5669 5669 5668 5668 5667 5667 5666 5666 5665 5664 5664 5663 5662 5660 5659 5658 5658 5655 5653 5650
5685 5682 5678 5674 5672 5669 5668 5667 5666 5666 5665 5665 5665 5664 5664 5662 5661 5660 5661 5661 5661 5660 5660 5661 5660 5660 5661 5661 5661 5661 5660 5661 5660 5659 5658 5658 5656 5655 5655 5654 5653 5651 5647 5644
5673 5670 5667 5664 5662 5660 5658 5657 5656 5656 5655 5655 5655 5655 5656 5656 5655 5654 5654 5654 5653 5652 5651 5651 5651 5651 5652 5652 5653 5653 5653 5654 5654 5653 5652 5651 5650 5649 5648 5647 5645 5644 5642 5640
5660 5658 5656 5654 5652 5653 5651 5646 5644 5645 5645 5646 5646 5646 5646 5648 5648 5648 5647 5648 5646 5644 5643 5643 5643 5642 5642 5642 5644 5646 5647 5646 5646 5646 5646 5645 5643 5643 5642 5641 5640 5639 5637 5635
5647 5644 5642 5642 5641 5638 5636 5635 5634 5634 5635 5635 5634 5635 5636 5638 5639 5639 5639 5640 5640 5638 5636 5636 5637 5635 5634 5634 5635 5638 5640 5640 5639 5639 5639 5639 5638 5637 5636 5635 5635 5634 5632 5630
5632 5632 5632 5629 5628 5627 5625 5624 5621 5623 5624 5623 5622 5622 5624 5626 5627 5627 5627 5630 5634 5632 5630 5630 5630 5630 5628 5627 5627 5628 5630 5632 5632 5633 5633 5632 5632 5630 5630 5629 5628 5627 5626 5625
5614 5613 5615 5614 5612 5610 5611 5613 5612 5610 5607 5609 5610 5611 5612 5612 5613 5614 5616 5619 5623 5623 5623 5623 5623 5624 5622 5620 5621 5621 5621 5623 5625 5627 5628 5628 5627 5626 5624 5623 5622 5621 5621 5620
5595 5595 5595 5595 5595 5592 5591 5593 5595 5596 5595 5594 5595 5596 5597 5599 5600 5601 5602 5607 5609 5611 5612 5613 5614 5615 5616 5613 5613 5614 5615 5616 5618 5619 5621 5622 5622 5621 5619 5617 5616 5616 5615 5614
5572 5572 5573 5575 5575 5576 5576 5576 5576 5579 5579 5578 5579 5581 5583 5585 5586 5587 5589 5593 5595 5597 5599 5601 5604 5605 5606 5606 5606 5606 5607 5609 5611 5612 5613 5614 5615 5614 5612 5611 5611 5610 5609 5608
5548 5546 5548 5551 5555 5558 5558 5559 5561 5562 5562 5563 5564 5566 5568 5569 5571 5572 5574 5577 5580 5582 5585 5590 5592 5595 5597 5598 5599 5599 5600 5601 5604 5605 5606 5606 5606 5606 5605 5604 5604 5603 5601 5599
5524 5525 5525 5527 5530 5536 5542 5544 5546 5547 5547 5547 5548 5550 5552 5554 5556 5555 5558 5562 5565 5569 5572 5575 5580 5584 5588 5589 5590 5591 5593 5594 5596 5598 5600 5600 5599 5599 5598 5597 5597 5597 5595 5593
5508 5507 5506 5509 5511 5515 5521 5526 5529 5530 5530 5531 5533 5534 5536 5538 5539 5539 5542 5547 5552 5557 5560 5563 5568 5573 5577 5579 5580 5582 5584 5586 5589 5591 5592 5593 5593 5592 5592 5592 5592 5590 5589 5587
Wind_Speed
28 28 28 27 27 29 32 37 38 33 30 30 33 38 37 32 26 29 31 31 45 32 27 27 23 25 27 29 29 29 30 30 30 30 30 31 32 32 31 31 32 32 32 31
30 31 30 26 25 27 30 34 33 29 27 28 28 33 33 28 16 16 23 28 35 42 30 26 25 26 30 30 30 29 28 29 30 31 29 29 30 31 29 29 31 31 30 28
31 32 32 27 25 25 27 28 27 26 26 24 23 24 26 30 27 25 22 18 9 10 18 22 25 26 24 24 26 27 27 26 28 33 32 29 28 30 30 30 28 28 29 28
33 33 32 28 27 24 24 24 24 25 25 23 23 23 22 25 25 22 19 15 13 15 16 16 16 15 17 21 23 24 25 24 24 28 30 28 27 27 27 28 28 28 29 29
37 39 37 26 27 22 22 21 22 25 26 24 22 23 23 23 23 18 14 13 13 14 13 11 11 13 16 19 21 22 23 24 24 26 27 27 25 24 24 24 24 25 26 26
31 35 39 33 29 24 23 21 21 21 23 20 19 21 23 22 20 17 13 11 11 10 10 11 12 15 18 21 21 22 23 22 21 22 23 22 20 20 21 22 23 23 23 24
29 29 29 29 31 30 27 24 21 20 20 19 17 17 18 18 17 16 14 12 10 10 11 12 13 15 18 21 22 24 24 23 21 19 18 17 16 16 16 17 17 18 19 20
27 24 25 25 29 29 28 24 23 22 18 17 17 17 16 13 12 11 10 10 9 9 8 7 7 9 10 11 14 17 17 16 14 13 14 14 14 14 14 14 16 18 19 19
29 27 25 25 27 29 28 26 24 23 19 15 15 15 15 12 9 8 6 4 4 3 2 2 4 5 7 8 9 7 4 5 5 6 8 10 12 12 11 13 16 18 19 20
29 26 27 26 25 26 25 24 23 21 21 18 16 14 14 13 9 7 5 3 3 3 3 4 5 4 5 6 7 8 6 0 5 6 7 7 9 11 14 17 18 18 17 19
27 26 26 25 27 25 22 20 22 21 23 24 21 18 16 14 12 10 9 8 8 8 8 7 7 7 6 5 3 2 2 0 2 5 7 10 12 12 12 12 13 15 16 17
21 22 25 24 26 25 22 20 21 22 22 27 25 22 19 17 16 15 14 13 12 11 12 12 12 12 11 9 7 6 5 5 7 8 9 9 9 10 11 12 14 16 18 20
26 26 27 25 24 24 23 19 17 19 21 23 25 24 22 21 20 19 17 16 16 15 15 15 15 14 14 14 13 12 11 11 11 11 11 11 11 11 12 13 15 18 21 22
32 31 27 25 24 25 25 20 15 12 16 22 26 27 26 23 21 22 20 20 20 19 18 18 19 18 16 16 16 15 15 15 15 14 13 13 12 12 13 15 17 19 22 23
31 32 29 27 26 25 25 20 16 12 11 14 17 22 26 28 25 24 23 22 22 22 22 22 22 22 20 19 18 17 16 17 16 16 15 14 14 14 16 16 17 18 18 20
31 30 29 28 26 24 23 20 18 17 17 19 19 17 15 18 23 28 28 27 28 27 25 24 24 24 22 20 19 18 17 17 17 17 17 16 16 15 17 17 17 16 16 19
28 27 28 26 23 22 22 23 23 19 19 22 22 19 18 15 14 17 21 23 24 26 27 27 27 26 25 22 20 20 20 19 19 20 19 17 17 17 17 17 14 13 15 16
33 33 28 24 22 24 24 24 26 29 26 25 22 20 19 17 16 17 19 20 21 21 22 25 28 29 30 27 23 21 21 21 20 20 19 18 18 18 16 14 13 11 13 13
32 28 22 21 20 28 30 24 24 26 26 25 23 22 21 19 20 20 19 17 17 17 21 23 25 27 28 26 23 22 22 22 21 20 18 18 18 18 15 13 13 13 13 15
33 25 21 28 24 30 32 25 21 23 24 25 24 25 25 24 24 26 25 21 18 20 22 21 21 22 24 24 23 22 21 20 19 19 19 18 18 18 15 14 14 15 16 19
37 33 30 35 37 32 35 37 32 31 32 29 28 27 28 29 29 29 30 26 22 25 24 21 18 18 20 19 21 23 22 19 17 18 18 19 20 19 17 15 15 16 16 20
46 44 42 38 35 37 40 38 32 30 34 30 31 34 37 36 34 34 34 28 26 30 30 25 19 17 20 20 19 22 23 21 18 18 18 18 17 18 20 19 17 16 17 19
54 50 43 38 40 42 42 40 35 33 34 36 36 37 41 41 39 36 37 33 28 29 33 31 24 20 23 25 23 23 24 23 22 20 18 16 14 14 17 18 18 17 16 16
59 54 49 46 45 46 47 47 48 43 41 41 40 39 40 41 41 39 38 39 35 33 33 32 33 28 25 28 26 24 25 26 24 21 20 19 17 16 16 17 17 15 15 17
65 61 56 51 50 48 48 49 48 44 41 42 41 39 39 40 42 42 39 37 36 37 39 39 34 36 36 33 27 25 27 27 24 21 21 22 21 19 19 19 17 16 18 21
64 65 66 62 57 51 46 46 44 43 44 46 44 43 42 40 39 39 34 33 35 36 33 33 38 34 34 32 27 24 28 32 26 21 19 18 16 16 18 19 20 19 21 24
48 44 47 48 49 48 43 40 38 40 41 41 40 37 35 36 36 35 33 33 34 33 33 29 31 33 31 28 24 22 23 27 27 26 25 24 22 20 19 19 19 19 21 22
Wind_Direction
295 292 290 293 297 301 310 318 324 324 319 324 333 338 333 319 282 263 274 264 248 251 258 275 278 268 261 262 265 270 271 272 271 268 271 275 276 275 274 275 277 278 280 282
294 292 291 294 295 300 309 318 323 322 318 321 332 346 357 358 341 292 271 275 264 255 258 270 264 261 261 260 258 259 263 267 271 274 273 270 270 273 277 279 280 282 283 284
289 284 286 291 294 296 301 311 322 323 323 322 322 339 354 358 357 341 310 289 280 274 267 260 251 254 255 260 261 260 257 259 268 272 272 269 267 272 274 276 281 287 288 286
281 283 282 286 285 287 294 303 317 329 329 322 318 319 331 337 340 333 321 303 289 282 268 249 243 251 260 264 265 262 258 258 270 270 268 266 265 270 275 281 285 285 283 285
280 269 267 274 280 287 288 295 310 331 333 323 317 314 322 325 328 330 329 319 304 288 274 262 251 252 260 265 266 269 267 263 262 263 265 266 270 277 280 282 282 280 280 282
302 290 276 271 269 274 277 285 297 318 330 333 324 317 317 321 328 334 336 335 322 308 305 301 283 272 275 277 274 271 271 268 263 266 271 276 281 283 283 282 280 279 278 279
313 300 296 291 275 265 271 280 284 297 317 334 335 333 328 324 322 320 320 316 314 307 298 290 286 284 283 280 276 272 271 271 270 269 271 275 277 278 280 282 286 290 290 290
316 313 308 300 290 285 273 271 278 286 300 322 331 331 336 339 329 324 318 308 299 291 291 296 298 302 308 306 294 280 273 271 268 261 258 259 264 271 280 288 298 303 302 298
312 313 307 306 298 291 274 267 274 282 287 303 317 322 326 334 348 358 6 19 37 38 22 7 353 356 3 8 11 360 299 261 255 248 251 259 264 270 276 290 301 302 299 294
313 310 301 302 304 296 282 269 265 274 280 284 291 301 310 310 314 324 330 335 340 332 320 312 316 339 1 13 29 45 52 282 243 252 262 264 271 279 286 293 295 293 290 289
319 311 299 296 297 301 291 277 267 269 275 273 273 278 286 285 276 280 285 287 284 287 291 295 302 305 308 315 338 9 39 72 256 266 276 282 285 287 289 291 291 293 294 296
318 306 307 306 294 299 297 285 270 256 264 268 269 272 275 275 273 272 275 278 284 291 295 294 290 289 285 282 282 279 272 267 268 275 282 285 285 287 287 288 292 296 299 299
307 300 304 308 299 293 292 294 281 255 251 268 271 271 274 274 273 272 274 279 282 284 285 288 290 290 288 283 280 279 279 277 276 280 287 291 292 291 291 295 298 300 300 301
304 295 296 298 297 291 289 290 294 287 262 261 268 268 264 263 269 272 272 274 277 279 281 284 287 288 288 285 282 280 279 279 279 278 279 283 286 288 290 295 301 305 307 308
303 295 292 291 291 285 283 284 285 284 282 288 294 283 267 257 252 260 264 268 271 273 274 278 285 288 287 283 280 278 277 278 278 275 276 279 282 285 289 296 301 303 305 310
297 294 290 290 287 279 273 276 280 276 285 288 292 298 292 275 258 252 259 264 266 267 269 270 272 279 284 283 279 274 272 276 279 280 281 282 281 281 283 287 289 290 297 308
291 289 287 282 276 272 270 275 274 271 283 284 283 285 286 291 284 263 260 265 272 276 269 266 271 277 281 279 273 270 268 268 272 275 277 278 276 276 277 279 278 285 305 321
294 281 276 273 269 267 266 265 265 267 275 276 276 273 271 271 273 273 271 274 278 281 278 274 270 272 279 282 273 271 275 271 268 272 276 278 280 284 286 283 282 291 310 322
299 289 280 286 290 278 268 265 266 264 265 270 274 271 265 262 266 268 270 280 285 277 275 278 278 280 279 273 268 267 272 272 270 271 272 274 276 282 286 281 274 276 297 313
288 290 263 249 271 288 265 255 250 249 256 266 271 271 271 273 274 273 268 271 279 270 269 274 283 288 286 278 267 262 265 266 268 271 273 273 273 277 278 274 270 272 289 308
276 282 282 273 272 272 259 248 234 233 239 252 261 269 275 278 276 274 272 270 269 259 254 256 265 279 288 286 273 267 267 264 263 268 272 273 277 281 282 282 283 283 291 304
273 280 282 277 270 258 251 251 247 244 238 247 260 267 277 279 273 271 268 267 276 265 250 245 243 255 274 281 277 267 265 267 268 267 266 267 266 271 275 277 281 283 290 302
274 273 270 263 261 262 261 260 259 265 257 256 269 276 276 274 265 263 262 264 270 261 247 241 236 241 259 273 278 270 262 264 271 275 272 269 267 269 268 267 271 276 283 299
275 274 268 264 262 260 260 262 267 272 273 274 269 265 268 269 264 259 265 267 260 254 248 244 240 239 251 262 271 271 263 261 265 272 274 277 281 280 274 271 272 281 288 299
272 273 271 267 263 257 256 262 270 274 271 269 269 268 267 267 265 263 261 258 253 251 249 245 245 246 250 255 260 264 256 259 261 263 271 279 280 273 270 274 279 290 302 312
273 274 276 277 272 264 258 261 265 264 264 267 269 267 263 260 261 261 254 246 245 245 249 246 236 237 249 253 259 262 252 252 249 252 266 276 275 269 270 272 275 285 297 306
276 276 275 275 275 273 268 264 263 262 264 264 263 261 259 257 254 253 248 240 235 237 242 239 232 233 241 250 257 259 252 248 249 255 261 265 272 275 275 278 280 284 292 297